Precipitable_Water
1.02 1.04 1.00 0.89 0.83 0.85 0.86 0.84 0.82 0.85 0.88 0.88 0.91 0.89 0.85 0.81 0.79 0.76 0.76 0.78 0.78 0.79 0.81 0.75 0.71 0.71 0.72 0.72 0.73 0.74 0.78 0.86 0.88 0.91 0.94 0.96 0.93 0.91 0.89 0.90 0.89 0.86
0.98 1.01 0.99 0.95 0.92 0.91 0.90 0.88 0.85 0.88 0.86 0.92 0.94 0.87 0.81 0.74 0.77 0.77 0.71 0.70 0.70 0.70 0.71 0.65 0.66 0.68 0.69 0.64 0.63 0.65 0.68 0.74 0.78 0.85 0.83 0.82 0.82 0.81 0.76 0.72 0.70 0.73
1.01 1.00 0.99 0.97 0.95 0.90 0.89 0.88 0.87 0.86 0.88 0.94 0.91 0.82 0.75 0.72 0.68 0.68 0.67 0.64 0.62 0.60 0.60 0.63 0.63 0.65 0.64 0.61 0.60 0.62 0.64 0.66 0.67 0.71 0.72 0.69 0.69 0.68 0.64 0.64 0.61 0.60
1.01 1.01 0.99 0.98 1.00 0.93 0.84 0.83 0.82 0.82 0.87 0.84 0.81 0.77 0.74 0.70 0.66 0.61 0.57 0.53 0.51 0.51 0.52 0.55 0.59 0.60 0.61 0.58 0.58 0.60 0.62 0.60 0.60 0.61 0.60 0.61 0.58 0.58 0.62 0.64 0.62 0.59
1.02 1.02 1.03 1.03 1.01 0.90 0.84 0.85 0.83 0.84 0.83 0.82 0.77 0.72 0.69 0.65 0.59 0.54 0.52 0.50 0.47 0.47 0.49 0.49 0.52 0.54 0.54 0.54 0.53 0.51 0.50 0.49 0.50 0.50 0.47 0.46 0.49 0.50 0.51 0.53 0.51 0.49
1.06 1.04 1.06 1.05 1.00 0.91 0.89 0.86 0.85 0.83 0.83 0.76 0.72 0.70 0.65 0.61 0.57 0.54 0.49 0.46 0.46 0.44 0.43 0.44 0.44 0.49 0.49 0.46 0.46 0.44 0.44 0.44 0.44 0.42 0.40 0.40 0.44 0.48 0.49 0.50 0.49 0.50
1.01 1.00 1.05 1.08 1.01 0.93 0.92 0.87 0.84 0.83 0.80 0.73 0.68 0.69 0.66 0.59 0.57 0.53 0.50 0.49 0.45 0.43 0.43 0.42 0.43 0.44 0.46 0.44 0.43 0.43 0.40 0.39 0.41 0.41 0.42 0.46 0.48 0.51 0.56 0.55 0.54 0.54
1.02 1.02 1.05 1.04 0.99 0.92 0.90 0.84 0.81 0.80 0.76 0.68 0.64 0.67 0.63 0.59 0.56 0.52 0.52 0.50 0.46 0.46 0.44 0.43 0.43 0.43 0.45 0.47 0.46 0.43 0.42 0.43 0.43 0.46 0.46 0.48 0.53 0.55 0.57 0.59 0.60 0.59
1.06 1.04 1.03 1.02 0.98 0.94 0.94 0.87 0.82 0.80 0.74 0.68 0.68 0.66 0.67 0.65 0.57 0.52 0.51 0.51 0.50 0.50 0.47 0.46 0.47 0.48 0.52 0.53 0.50 0.47 0.49 0.52 0.55 0.55 0.56 0.59 0.60 0.60 0.60 0.61 0.60 0.58
1.07 1.05 1.04 1.02 1.00 1.00 1.00 0.92 0.86 0.84 0.76 0.69 0.72 0.66 0.67 0.68 0.62 0.52 0.52 0.52 0.52 0.52 0.51 0.50 0.52 0.54 0.54 0.55 0.53 0.54 0.56 0.59 0.61 0.61 0.62 0.62 0.61 0.61 0.61 0.61 0.59 0.58
1.05 1.04 1.03 1.04 1.03 1.03 1.02 0.95 0.90 0.89 0.81 0.74 0.74 0.67 0.70 0.68 0.64 0.60 0.53 0.53 0.51 0.52 0.54 0.54 0.57 0.56 0.55 0.54 0.57 0.60 0.63 0.64 0.64 0.64 0.64 0.62 0.62 0.63 0.62 0.63 0.61 0.61
1.06 1.04 1.03 1.03 1.04 1.06 1.07 1.02 0.98 0.95 0.90 0.82 0.77 0.70 0.73 0.71 0.67 0.62 0.58 0.55 0.53 0.53 0.55 0.56 0.57 0.57 0.58 0.57 0.57 0.58 0.63 0.65 0.66 0.66 0.68 0.67 0.67 0.66 0.66 0.68 0.66 0.67
1.04 1.04 1.05 1.05 1.06 1.11 1.11 1.09 1.04 1.00 0.96 0.86 0.84 0.77 0.74 0.72 0.72 0.65 0.64 0.61 0.57 0.55 0.55 0.56 0.55 0.55 0.59 0.62 0.63 0.62 0.64 0.64 0.66 0.67 0.69 0.71 0.71 0.70 0.70 0.72 0.71 0.74
1.06 1.08 1.09 1.09 1.09 1.08 1.08 1.08 1.08 1.05 1.00 0.96 0.91 0.85 0.76 0.73 0.74 0.71 0.71 0.67 0.64 0.60 0.59 0.58 0.58 0.57 0.59 0.61 0.62 0.65 0.66 0.65 0.69 0.66 0.68 0.71 0.71 0.73 0.71 0.72 0.73 0.78
1.09 1.09 1.11 1.11 1.08 1.04 1.03 1.03 1.03 1.04 1.02 0.98 0.95 0.92 0.89 0.83 0.77 0.73 0.76 0.72 0.73 0.68 0.66 0.65 0.63 0.61 0.61 0.63 0.63 0.63 0.65 0.63 0.66 0.65 0.67 0.68 0.71 0.71 0.74 0.75 0.74 0.79
1.08 1.07 1.07 1.05 1.02 1.02 1.04 1.02 1.00 0.99 0.97 0.97 0.98 0.96 0.94 0.91 0.86 0.81 0.78 0.78 0.76 0.76 0.73 0.73 0.71 0.71 0.69 0.67 0.66 0.66 0.67 0.67 0.67 0.67 0.67 0.69 0.69 0.70 0.74 0.79 0.84 0.82
0.98 0.99 1.00 0.96 0.99 0.99 0.99 0.99 0.96 0.95 0.96 0.95 0.96 0.96 0.92 0.91 0.90 0.86 0.84 0.83 0.81 0.79 0.80 0.81 0.84 0.87 0.81 0.75 0.73 0.71 0.70 0.70 0.69 0.69 0.69 0.71 0.72 0.72 0.76 0.83 0.86 0.89
0.96 0.94 0.93 0.92 0.95 0.93 0.96 0.97 0.95 0.93 0.91 0.91 0.91 0.90 0.91 0.92 0.91 0.90 0.91 0.93 0.94 0.93 0.93 0.90 0.89 0.95 0.92 0.89 0.84 0.82 0.82 0.82 0.81 0.78 0.77 0.76 0.80 0.80 0.83 0.87 0.90 0.91
0.81 0.87 0.91 0.88 0.92 0.91 0.89 0.92 0.90 0.88 0.87 0.87 0.86 0.88 0.88 0.84 0.83 0.82 0.85 0.89 0.89 0.89 0.93 0.98 0.99 0.96 0.94 0.94 0.93 0.93 0.90 0.90 0.87 0.86 0.84 0.83 0.84 0.86 0.91 0.92 0.97 0.97
0.78 0.76 0.79 0.80 0.84 0.82 0.83 0.86 0.87 0.87 0.88 0.86 0.84 0.83 0.82 0.81 0.83 0.85 0.88 0.88 0.88 0.90 0.93 0.97 0.98 1.00 0.97 0.96 0.98 0.98 0.95 0.92 0.91 0.92 0.92 0.92 0.94 0.96 1.00 0.95 1.02 0.95
0.71 0.70 0.70 0.70 0.70 0.72 0.75 0.76 0.79 0.81 0.83 0.87 0.89 0.87 0.84 0.82 0.83 0.82 0.84 0.85 0.87 0.89 0.90 0.90 0.92 0.96 0.95 0.92 0.91 0.96 1.00 0.96 0.95 0.95 0.96 0.98 1.00 1.02 1.08 1.10 1.04 1.03
0.69 0.69 0.70 0.68 0.67 0.68 0.70 0.72 0.73 0.76 0.74 0.79 0.83 0.85 0.88 0.88 0.88 0.87 0.85 0.83 0.84 0.86 0.85 0.82 0.86 0.89 0.90 0.91 0.94 0.97 0.96 0.93 0.92 0.92 0.93 0.97 0.97 0.95 0.93 1.01 1.05 1.02
0.67 0.67 0.67 0.68 0.69 0.66 0.65 0.65 0.66 0.71 0.75 0.78 0.77 0.78 0.81 0.83 0.83 0.83 0.85 0.84 0.83 0.84 0.84 0.86 0.85 0.90 0.89 0.87 0.90 0.93 0.91 0.89 0.88 0.87 0.89 0.90 0.91 0.95 0.99 1.02 1.02 0.99
0.65 0.64 0.64 0.66 0.68 0.67 0.67 0.68 0.70 0.70 0.71 0.74 0.72 0.72 0.74 0.79 0.83 0.86 0.88 0.87 0.84 0.82 0.84 0.83 0.85 0.86 0.87 0.89 0.89 0.92 0.93 0.90 0.87 0.85 0.86 0.90 0.91 0.95 0.97 0.97 0.97 0.97
0.64 0.63 0.63 0.64 0.66 0.68 0.69 0.68 0.68 0.68 0.68 0.67 0.66 0.66 0.66 0.69 0.69 0.69 0.72 0.77 0.80 0.80 0.82 0.84 0.87 0.91 0.92 0.91 0.91 0.91 0.91 0.91 0.89 0.86 0.85 0.86 0.87 0.89 0.94 0.93 0.91 0.92
0.54 0.54 0.56 0.57 0.59 0.60 0.63 0.64 0.65 0.63 0.61 0.59 0.59 0.61 0.62 0.63 0.63 0.64 0.64 0.66 0.71 0.77 0.79 0.79 0.79 0.82 0.84 0.85 0.84 0.85 0.88 0.90 0.91 0.88 0.85 0.85 0.87 0.87 0.84 0.85 0.85 0.86
Wind_Speed
11 11 10 9 9 8 8 9 9 9 9 8 7 6 6 5 5 4 4 4 4 4 4 4 4 3 3 2 2 2 2 3 3 4 4 4 5 5 5 5 5 6
11 11 10 9 9 9 9 9 9 9 8 7 6 6 6 5 4 4 4 4 5 5 4 4 4 3 3 3 2 2 2 2 3 3 3 4 4 5 5 5 5 6
12 12 12 11 10 10 9 9 9 8 7 6 6 6 6 5 4 4 4 4 5 4 4 4 4 3 3 3 3 3 2 2 3 3 3 4 4 4 4 4 5 5
12 13 12 11 11 10 9 8 8 8 7 7 7 6 5 5 4 4 4 4 4 4 4 4 4 4 4 4 4 4 3 3 3 4 4 4 4 4 4 4 4 4
12 13 13 12 12 10 9 8 8 7 7 7 7 6 5 5 4 4 4 5 5 5 5 5 4 4 4 4 5 4 4 4 4 4 4 4 4 4 4 4 4 4
12 13 14 13 12 11 10 9 8 8 8 7 7 7 6 6 6 6 6 6 5 5 5 5 5 5 5 5 5 5 5 5 5 5 5 4 4 5 4 4 4 3
12 13 14 13 12 11 10 9 8 8 8 8 8 8 7 7 7 7 7 6 5 5 4 4 4 5 5 5 5 5 5 5 5 5 5 5 4 4 4 4 4 4
12 13 13 12 11 11 10 10 9 9 9 9 8 8 8 7 7 7 7 6 5 5 4 4 4 5 5 5 5 5 5 5 5 5 5 5 4 4 4 4 4 4
13 12 13 13 12 12 12 11 11 10 9 9 9 8 8 8 8 7 7 6 6 5 5 5 5 5 5 5 6 6 5 5 5 5 5 5 5 5 5 5 5 5
13 13 12 12 13 13 12 11 11 10 9 9 9 9 8 8 8 8 7 7 6 6 6 6 6 5 6 6 6 6 6 6 6 6 6 6 6 6 6 6 6 6
12 12 12 12 12 12 12 11 10 10 10 10 9 9 9 8 9 8 8 8 8 7 7 7 7 7 7 7 7 7 7 7 7 7 7 6 6 7 7 7 8 8
12 12 12 12 12 12 12 12 11 11 11 10 10 10 10 10 10 10 10 10 10 9 9 9 9 9 8 8 8 8 8 8 8 8 8 7 7 8 8 9 9 9
11 12 12 13 13 13 13 12 12 12 12 12 12 11 11 11 11 11 11 11 11 11 11 11 11 11 10 10 10 10 10 10 10 10 9 9 9 10 10 10 11 11
10 11 12 12 13 13 12 12 12 12 12 12 12 12 12 12 13 13 12 13 13 13 13 13 13 13 13 12 12 12 12 12 12 12 12 12 12 12 12 13 13 13
11 11 11 11 11 12 12 12 11 12 12 12 12 12 13 13 13 13 13 14 14 15 15 15 15 15 15 15 15 15 15 15 15 15 15 15 15 15 15 15 15 15
11 11 12 11 11 12 12 12 11 11 11 11 12 12 13 13 13 14 14 15 16 16 17 17 17 17 18 18 18 18 18 18 18 18 18 18 18 18 18 17 17 18
11 12 12 12 12 13 13 13 13 13 12 13 13 13 14 14 14 15 15 16 16 17 17 18 18 19 19 19 20 20 20 20 20 20 20 20 20 20 20 20 20 20
12 12 12 13 13 13 13 14 14 14 14 15 15 16 16 17 17 17 17 18 18 19 19 20 20 20 20 20 21 21 21 22 22 22 23 23 23 23 23 23 22 22
14 14 14 14 14 14 15 15 15 15 15 16 17 17 18 19 19 19 20 20 21 21 22 22 22 22 22 22 23 23 23 24 24 24 24 25 25 26 26 25 24 23
15 15 15 16 16 16 16 17 17 17 17 17 18 18 19 20 20 21 21 22 22 23 24 24 24 24 25 25 26 26 27 26 26 26 26 26 26 27 26 26 26 25
16 17 17 17 18 18 18 18 18 18 19 19 19 20 21 21 21 22 23 23 24 25 25 26 26 27 27 28 29 29 28 28 28 28 28 28 27 27 27 27 27 26
18 19 19 20 20 20 20 20 20 20 20 21 21 22 23 23 24 24 25 25 26 26 27 27 28 28 29 29 30 30 30 30 30 31 30 30 30 29 29 29 29 28
21 21 21 22 22 22 22 21 21 22 22 23 24 24 25 26 26 26 26 27 27 28 29 29 30 31 31 31 31 31 32 32 32 32 32 32 32 31 30 30 30 29
23 23 23 23 23 23 23 23 24 24 25 26 26 27 27 28 29 29 30 30 30 30 31 31 31 32 33 33 33 33 33 33 33 33 33 33 33 33 32 31 31 30
25 24 24 24 25 25 25 26 27 28 28 29 30 30 31 31 32 32 33 33 33 33 32 32 32 32 33 34 34 34 34 34 34 34 34 34 34 33 32 31 31 30
27 26 26 27 27 28 29 30 31 32 33 33 34 34 34 35 35 35 34 34 34 34 34 34 34 34 34 35 36 35 35 35 35 35 35 34 33 33 32 31 30 30
Wind_Direction
234 239 240 241 245 251 257 264 272 275 279 282 279 277 280 287 297 303 310 313 308 304 301 298 293 287 294 301 294 290 289 285 275 263 250 241 237 230 227 226 222 220
233 236 237 241 246 250 257 265 270 273 275 274 267 268 278 284 290 295 301 308 310 307 302 300 293 285 286 287 281 282 289 289 280 267 254 245 239 230 227 228 225 220
233 235 237 243 248 252 259 263 268 269 265 261 259 267 276 277 279 287 294 302 310 309 303 298 291 281 278 276 271 268 269 270 264 256 253 247 239 232 228 227 223 219
235 235 238 245 250 254 256 259 263 262 255 256 260 264 267 266 269 279 291 302 307 305 298 292 287 279 275 272 266 262 259 255 250 247 245 240 234 228 225 225 219 214
236 237 239 243 248 251 250 251 257 256 252 255 258 258 258 258 264 274 285 295 298 297 294 289 283 276 270 267 261 258 254 248 246 243 237 233 229 222 219 220 214 210
240 241 242 243 245 247 247 246 252 255 254 255 256 255 257 259 264 274 282 288 291 291 290 286 281 275 268 262 257 254 251 246 243 240 233 229 223 218 216 212 205 203
243 244 243 243 240 240 242 244 250 255 255 256 255 255 259 260 263 271 277 282 287 287 287 284 278 273 269 262 255 249 247 244 243 240 232 227 222 218 217 213 205 200
243 242 240 236 233 237 244 248 252 255 255 255 253 254 260 261 261 265 267 270 275 278 283 285 278 271 267 262 255 247 243 243 242 237 230 227 226 223 222 222 219 218
240 238 236 233 235 242 247 250 254 256 254 252 252 254 259 260 258 258 258 259 263 268 276 281 278 271 264 259 252 242 240 243 240 234 230 228 230 231 231 234 236 238
236 234 233 235 241 245 246 247 250 252 251 251 253 255 257 257 254 252 253 255 257 262 269 272 272 269 263 257 250 242 240 242 240 236 235 235 238 241 242 245 247 248
232 232 232 236 242 245 244 245 247 250 251 251 253 254 253 254 253 250 251 253 256 259 262 264 265 263 259 253 248 243 243 244 244 242 241 244 248 250 250 252 255 255
232 234 236 238 241 244 245 247 250 252 253 252 253 253 253 255 255 253 252 254 256 257 257 257 258 255 252 250 247 246 248 250 250 248 248 251 255 257 257 258 260 260
237 239 241 242 244 246 248 251 253 254 254 255 256 257 256 256 256 255 254 255 257 256 254 254 253 250 248 249 251 252 252 254 255 254 255 257 259 260 261 262 263 264
245 245 245 244 246 248 250 252 253 254 255 256 257 258 257 257 257 255 254 255 257 257 256 254 252 250 249 251 253 254 255 257 258 258 259 261 262 262 264 265 264 265
250 249 247 245 245 248 251 252 254 254 254 255 257 258 257 257 257 256 256 256 257 258 258 256 254 253 252 252 254 255 256 258 259 261 261 262 263 262 263 264 264 265
251 251 249 248 249 251 253 254 256 256 254 255 257 258 259 259 259 258 258 258 259 260 260 259 258 257 256 255 255 257 258 259 260 261 262 263 263 263 262 262 263 265
254 253 252 254 255 256 257 257 258 259 258 257 258 259 260 261 262 262 261 261 262 263 263 262 260 260 260 259 258 259 259 259 260 261 262 262 263 263 263 262 263 265
256 256 255 257 258 259 260 261 261 262 262 261 261 261 262 263 263 263 263 264 264 264 266 266 264 263 263 262 260 259 259 259 261 261 262 263 263 263 264 264 264 265
257 258 259 260 261 262 263 263 264 265 265 265 265 265 266 266 266 266 265 264 265 265 266 268 267 265 262 260 259 260 261 263 264 264 265 265 266 265 264 264 264 265
260 261 262 263 263 263 264 264 265 266 268 268 268 268 269 269 269 269 267 266 266 266 266 267 267 266 262 261 261 262 264 266 266 267 268 268 268 267 266 265 265 265
266 265 266 265 264 264 264 264 265 267 269 269 269 270 271 271 272 272 272 270 269 268 267 267 267 265 264 264 264 264 264 265 266 267 269 269 269 269 270 269 267 266
269 269 268 267 265 265 264 264 266 268 270 271 272 273 274 273 274 274 274 273 271 270 269 269 268 266 265 265 265 265 265 266 266 267 268 269 270 271 272 271 268 267
270 270 271 269 267 266 265 266 269 271 273 274 275 276 276 275 275 275 274 274 273 272 271 271 270 268 267 266 265 264 265 266 266 266 267 268 269 270 271 270 268 267
269 270 269 267 266 266 266 268 272 274 275 276 276 276 276 275 275 275 275 274 274 273 272 271 271 270 269 268 266 264 265 266 266 266 266 267 268 269 270 269 268 268
270 268 267 266 266 266 266 269 272 274 276 277 277 276 275 275 275 275 274 274 273 272 271 271 271 270 269 269 268 266 266 266 265 265 266 267 267 268 268 268 268 268
269 267 265 265 266 266 267 269 272 275 277 277 276 276 276 275 275 274 274 273 272 271 271 270 270 271 271 270 269 267 266 265 265 265 266 266 266 266 266 266 266 266